| time (UTC) | temp C | wind direction | speed KPH | gust KPH | rain 1hr cm | rain 24hr cm | rain mn cm | humidity % | barometer mb |
| 20260507020943 | 16 | 233 | 12.9 | 20.9 | 0.00 | 0.00 | 0.00 | 72 | 1019.8 |
| 20260507020442 | 17 | 248 | 12.9 | 22.5 | 0.00 | 0.00 | 0.00 | 71 | 1019.8 |
| 20260507020215 | 17 | 247 | 9.7 | 22.5 | 0.00 | 0.00 | 0.00 | 71 | 1019.8 |
| 20260507015442 | 17 | 256 | 11.3 | 22.5 | 0.00 | 0.00 | 0.00 | 70 | 1019.7 |
| 20260507015203 | 17 | 261 | 16.1 | 24.1 | 0.00 | 0.00 | 0.00 | 70 | 1019.7 |
| 20260507014438 | 17 | 258 | 16.1 | 24.1 | 0.00 | 0.00 | 0.00 | 70 | 1019.7 |
| 20260507013938 | 17 | 252 | 14.5 | 24.1 | 0.00 | 0.00 | 0.00 | 69 | 1019.7 |
| 20260507013438 | 17 | 231 | 14.5 | 25.7 | 0.00 | 0.00 | 0.00 | 69 | 1019.7 |
| 20260507012936 | 18 | 260 | 14.5 | 25.7 | 0.00 | 0.00 | 0.00 | 68 | 1019.7 |
| 20260507012436 | 18 | 227 | 14.5 | 24.1 | 0.00 | 0.00 | 0.00 | 69 | 1019.7 |
| 20260507011937 | 18 | 260 | 14.5 | 24.1 | 0.00 | 0.00 | 0.00 | 68 | 1019.7 |
| 20260507011926 | 18 | 282 | 14.5 | 22.5 | 0.00 | 0.00 | 0.00 | 67 | 1019.7 |
| 20260507010934 | 18 | 227 | 14.5 | 24.1 | 0.00 | 0.00 | 0.00 | 67 | 1019.7 |
| 20260507010434 | 18 | 297 | 16.1 | 24.1 | 0.00 | 0.00 | 0.00 | 67 | 1019.7 |
| 20260507005935 | 19 | 260 | 16.1 | 25.7 | 0.00 | 0.00 | 0.00 | 67 | 1019.6 |
| 20260507005435 | 19 | 265 | 16.1 | 25.7 | 0.00 | 0.00 | 0.00 | 66 | 1019.6 |
| 20260507004932 | 20 | 270 | 16.1 | 24.1 | 0.00 | 0.00 | 0.00 | 66 | 1019.6 |
| 20260507004433 | 20 | 249 | 16.1 | 24.1 | 0.00 | 0.00 | 0.00 | 64 | 1019.5 |
| 20260507003931 | 20 | 243 | 16.1 | 27.4 | 0.00 | 0.00 | 0.00 | 65 | 1019.5 |
| 20260507003423 | 20 | 230 | 17.7 | 27.4 | 0.00 | 0.00 | 0.00 | 65 | 1019.4 |
| 20260507003149 | 20 | 233 | 17.7 | 25.7 | 0.00 | 0.00 | 0.00 | 65 | 1019.5 |
| 20260507002424 | 20 | 241 | 17.7 | 25.7 | 0.00 | 0.00 | 0.00 | 64 | 1019.5 |
| 20260507001920 | 20 | 203 | 17.7 | 27.4 | 0.00 | 0.00 | 0.00 | 64 | 1019.4 |
| 20260507001647 | 20 | 248 | 16.1 | 27.4 | 0.00 | 0.00 | 0.00 | 64 | 1019.5 |
| 20260507000918 | 20 | 241 | 16.1 | 27.4 | 0.00 | 0.00 | 0.00 | 65 | 1019.5 |
| 20260507000417 | 21 | 250 | 14.5 | 25.7 | 0.00 | 0.00 | 0.00 | 64 | 1019.4 |
| 20260506235916 | 21 | 249 | 16.1 | 27.4 | 0.00 | 0.00 | 0.00 | 64 | 1019.5 |
| 20260506235631 | 21 | 275 | 17.7 | 27.4 | 0.00 | 0.00 | 0.00 | 63 | 1019.3 |
| 20260506234904 | 21 | 226 | 16.1 | 25.7 | 0.00 | 0.00 | 0.00 | 63 | 1019.4 |
| 20260506234403 | 21 | 235 | 14.5 | 22.5 | 0.00 | 0.00 | 0.00 | 62 | 1019.3 |
| 20260506233902 | 21 | 258 | 14.5 | 20.9 | 0.00 | 0.00 | 0.00 | 62 | 1019.3 |
| 20260506233403 | 22 | 235 | 12.9 | 20.9 | 0.00 | 0.00 | 0.00 | 61 | 1019.4 |
| 20260506232902 | 21 | 231 | 12.9 | 20.9 | 0.00 | 0.00 | 0.00 | 61 | 1019.3 |
| 20260506232400 | 21 | 227 | 11.3 | 22.5 | 0.00 | 0.00 | 0.00 | 61 | 1019.3 |
| 20260506231859 | 21 | 219 | 12.9 | 22.5 | 0.00 | 0.00 | 0.00 | 60 | 1019.3 |
| 20260506231627 | 21 | 230 | 12.9 | 22.5 | 0.00 | 0.00 | 0.00 | 61 | 1019.3 |
| 20260506230857 | 21 | 246 | 12.9 | 22.5 | 0.00 | 0.00 | 0.00 | 62 | 1019.5 |
| 20260506230358 | 21 | 201 | 12.9 | 20.9 | 0.00 | 0.00 | 0.00 | 61 | 1019.3 |
| 20260506225858 | 21 | 218 | 14.5 | 20.9 | 0.00 | 0.00 | 0.00 | 62 | 1019.3 |
| 20260506225623 | 21 | 265 | 14.5 | 24.1 | 0.00 | 0.00 | 0.00 | 62 | 1019.3 |
| 20260506224859 | 21 | 226 | 14.5 | 24.1 | 0.00 | 0.00 | 0.00 | 61 | 1019.4 |
| 20260506224354 | 21 | 235 | 14.5 | 22.5 | 0.00 | 0.00 | 0.00 | 63 | 1019.4 |
| 20260506223854 | 21 | 231 | 14.5 | 22.5 | 0.00 | 0.00 | 0.00 | 63 | 1019.6 |
| 20260506223352 | 21 | 241 | 12.9 | 22.5 | 0.00 | 0.00 | 0.00 | 61 | 1019.7 |
| 20260506222852 | 21 | 224 | 12.9 | 24.1 | 0.00 | 0.00 | 0.00 | 63 | 1019.7 |
| 20260506222353 | 21 | 235 | 14.5 | 24.1 | 0.00 | 0.00 | 0.00 | 61 | 1019.7 |
| 20260506221851 | 21 | 222 | 14.5 | 20.9 | 0.00 | 0.00 | 0.00 | 62 | 1019.8 |
| 20260506221347 | 21 | 239 | 12.9 | 20.9 | 0.00 | 0.00 | 0.00 | 64 | 1019.8 |
| 20260506220848 | 21 | 290 | 11.3 | 19.3 | 0.00 | 0.00 | 0.00 | 62 | 1019.8 |
| 20260506220607 | 21 | 242 | 11.3 | 19.3 | 0.00 | 0.00 | 0.00 | 62 | 1019.9 |
| 20260506215847 | 21 | 299 | 12.9 | 22.5 | 0.00 | 0.00 | 0.00 | 65 | 1019.9 |
| 20260506215609 | 21 | 224 | 14.5 | 22.5 | 0.00 | 0.00 | 0.00 | 63 | 1019.9 |
| 20260506214848 | 21 | 232 | 12.9 | 20.9 | 0.00 | 0.00 | 0.00 | 65 | 1019.9 |
| 20260506214349 | 21 | 236 | 11.3 | 20.9 | 0.00 | 0.00 | 0.00 | 63 | 1020.0 |
| 20260506213846 | 21 | 230 | 9.7 | 20.9 | 0.00 | 0.00 | 0.00 | 65 | 1020.1 |
| 20260506213608 | 21 | 243 | 12.9 | 22.5 | 0.00 | 0.00 | 0.00 | 66 | 1020.1 |
| 20260506212848 | 21 | 225 | 12.9 | 22.5 | 0.00 | 0.00 | 0.00 | 65 | 1020.2 |
| 20260506212344 | 21 | 261 | 11.3 | 22.5 | 0.00 | 0.00 | 0.00 | 66 | 1020.3 |
| 20260506211842 | 21 | 246 | 9.7 | 19.3 | 0.00 | 0.00 | 0.00 | 68 | 1020.4 |
| 20260506211345 | 20 | 243 | 12.9 | 20.9 | 0.00 | 0.00 | 0.00 | 67 | 1020.3 |
| 20260506210842 | 20 | 252 | 12.9 | 20.9 | 0.00 | 0.00 | 0.00 | 69 | 1020.3 |
| 20260506210341 | 20 | 215 | 11.3 | 19.3 | 0.00 | 0.00 | 0.00 | 67 | 1020.2 |
| 20260506205840 | 20 | 239 | 11.3 | 17.7 | 0.00 | 0.00 | 0.00 | 66 | 1020.3 |
| 20260506205341 | 20 | 247 | 11.3 | 19.3 | 0.00 | 0.00 | 0.00 | 67 | 1020.2 |
| 20260506204841 | 20 | 227 | 9.7 | 19.3 | 0.00 | 0.00 | 0.00 | 67 | 1020.3 |
| 20260506204340 | 20 | 250 | 9.7 | 19.3 | 0.00 | 0.00 | 0.00 | 71 | 1020.2 |
| 20260506203840 | 19 | 171 | 11.3 | 17.7 | 0.00 | 0.00 | 0.00 | 70 | 1020.2 |
| 20260506203341 | 19 | 219 | 12.9 | 17.7 | 0.00 | 0.00 | 0.00 | 68 | 1020.2 |
| 20260506202841 | 19 | 248 | 12.9 | 17.7 | 0.00 | 0.00 | 0.00 | 71 | 1020.4 |
| 20260506202341 | 19 | 223 | 12.9 | 19.3 | 0.00 | 0.00 | 0.00 | 70 | 1020.5 |
| 20260506201832 | 19 | 212 | 9.7 | 19.3 | 0.00 | 0.00 | 0.00 | 71 | 1020.6 |
| 20260506201334 | 18 | 227 | 8.0 | 12.9 | 0.00 | 0.00 | 0.00 | 72 | 1020.6 |
| 20260506200832 | 18 | 250 | 4.8 | 12.9 | 0.00 | 0.00 | 0.00 | 72 | 1020.7 |
| 20260506200323 | 17 | 203 | 4.8 | 12.9 | 0.00 | 0.00 | 0.00 | 73 | 1020.7 |
| 20260506195826 | 18 | 235 | 8.0 | 14.5 | 0.00 | 0.00 | 0.00 | 77 | 1020.9 |
| 20260506195325 | 17 | 215 | 9.7 | 17.7 | 0.00 | 0.00 | 0.00 | 74 | 1020.9 |
| 20260506194819 | 18 | 232 | 11.3 | 17.7 | 0.00 | 0.00 | 0.00 | 74 | 1020.8 |
| 20260506194319 | 17 | 226 | 8.0 | 16.1 | 0.00 | 0.00 | 0.00 | 76 | 1020.9 |
| 20260506193816 | 17 | 281 | 6.4 | 14.5 | 0.00 | 0.00 | 0.00 | 76 | 1020.9 |
| 20260506193307 | 17 | 280 | 4.8 | 12.9 | 0.00 | 0.00 | 0.00 | 75 | 1020.8 |
| 20260506192807 | 17 | 231 | 6.4 | 16.1 | 0.00 | 0.00 | 0.00 | 76 | 1020.8 |
| 20260506192307 | 17 | 204 | 8.0 | 16.1 | 0.00 | 0.00 | 0.00 | 77 | 1020.8 |
| 20260506191807 | 16 | 225 | 8.0 | 14.5 | 0.00 | 0.00 | 0.00 | 76 | 1020.9 |
| 20260506191532 | 17 | 230 | 4.8 | 14.5 | 0.00 | 0.00 | 0.00 | 78 | 1021.0 |
| 20260506191244 | 16 | 239 | 4.8 | 12.9 | 0.00 | 0.00 | 0.00 | 80 | 1021.1 |
| 20260506190307 | 16 | 177 | 4.8 | 11.3 | 0.00 | 0.00 | 0.00 | 79 | 1021.0 |
| 20260506185754 | 16 | 201 | 3.2 | 8.0 | 0.00 | 0.00 | 0.00 | 79 | 1021.1 |
| 20260506185256 | 16 | 209 | 3.2 | 12.9 | 0.00 | 0.00 | 0.00 | 82 | 1021.1 |
| 20260506184755 | 16 | 230 | 3.2 | 12.9 | 0.00 | 0.00 | 0.00 | 81 | 1021.0 |
| 20260506184252 | 16 | 200 | 3.2 | 8.0 | 0.00 | 0.00 | 0.00 | 80 | 1021.1 |
| 20260506183752 | 15 | 300 | 4.8 | 8.0 | 0.00 | 0.00 | 0.00 | 82 | 1021.0 |
| 20260506183511 | 15 | 289 | 4.8 | 11.3 | 0.00 | 0.00 | 0.00 | 80 | 1021.1 |
| 20260506182749 | 16 | 210 | 6.4 | 11.3 | 0.00 | 0.00 | 0.00 | 81 | 1021.1 |
| 20260506182250 | 16 | 265 | 4.8 | 9.7 | 0.00 | 0.00 | 0.00 | 81 | 1021.1 |
| 20260506182238 | 15 | 275 | 4.8 | 9.7 | 0.00 | 0.00 | 0.00 | 82 | 1021.1 |
| 20260506181250 | 15 | 221 | 4.8 | 9.7 | 0.00 | 0.00 | 0.00 | 81 | 1021.0 |
| 20260506180743 | 15 | 235 | 4.8 | 9.7 | 0.00 | 0.00 | 0.00 | 82 | 1021.0 |
| 20260506180242 | 15 | 206 | 4.8 | 8.0 | 0.00 | 0.00 | 0.00 | 83 | 1021.0 |
| 20260506175745 | 15 | 237 | 3.2 | 9.7 | 0.00 | 0.00 | 0.00 | 84 | 1021.1 |
| 20260506175237 | 15 | 279 | 3.2 | 9.7 | 0.00 | 0.00 | 0.00 | 86 | 1021.0 |
| 20260506174738 | 15 | 196 | 3.2 | 6.4 | 0.00 | 0.00 | 0.00 | 86 | 1021.1 |
| 20260506174235 | 14 | 149 | 3.2 | 6.4 | 0.00 | 0.00 | 0.00 | 84 | 1021.0 |
| 20260506173730 | 14 | 238 | 3.2 | 6.4 | 0.00 | 0.00 | 0.00 | 86 | 1021.1 |
| 20260506173223 | 13 | 195 | 3.2 | 6.4 | 0.00 | 0.00 | 0.00 | 86 | 1021.0 |
| 20260506172710 | 13 | 149 | 3.2 | 6.4 | 0.00 | 0.00 | 0.00 | 87 | 1020.9 |
| 20260506172204 | 13 | 218 | 3.2 | 6.4 | 0.00 | 0.00 | 0.00 | 86 | 1020.8 |
| 20260506171706 | 13 | 283 | 3.2 | 6.4 | 0.00 | 0.00 | 0.00 | 87 | 1020.9 |
| 20260506171203 | 13 | 216 | 3.2 | 6.4 | 0.00 | 0.00 | 0.00 | 88 | 1020.9 |
| 20260506170920 | 13 | 158 | 3.2 | 8.0 | 0.00 | 0.00 | 0.00 | 87 | 1020.8 |
| 20260506170203 | 13 | 287 | 3.2 | 8.0 | 0.00 | 0.00 | 0.00 | 88 | 1020.8 |
| 20260506165701 | 13 | 218 | 3.2 | 6.4 | 0.00 | 0.00 | 0.00 | 90 | 1020.8 |
| 20260506165202 | 13 | 161 | 3.2 | 6.4 | 0.00 | 0.00 | 0.00 | 89 | 1020.7 |
| 20260506164701 | 12 | 133 | 4.8 | 9.7 | 0.00 | 0.00 | 0.00 | 90 | 1020.7 |
| 20260506164205 | 12 | 158 | 4.8 | 9.7 | 0.00 | 0.00 | 0.00 | 90 | 1020.8 |
| 20260506163655 | 12 | 181 | 4.8 | 9.7 | 0.00 | 0.00 | 0.00 | 90 | 1020.9 |
| 20260506163150 | 12 | 137 | 3.2 | 6.4 | 0.00 | 0.00 | 0.00 | 91 | 1021.0 |
| 20260506162643 | 12 | 129 | 1.6 | 6.4 | 0.00 | 0.00 | 0.00 | 92 | 1021.0 |
| 20260506162144 | 12 | 135 | 1.6 | 6.4 | 0.00 | 0.00 | 0.00 | 92 | 1021.0 |
| 20260506161635 | 12 | 223 | 1.6 | 4.8 | 0.00 | 0.00 | 0.00 | 92 | 1021.1 |
| 20260506161122 | 12 | 187 | 1.6 | 4.8 | 0.00 | 0.00 | 0.00 | 93 | 1021.1 |
| 20260506160605 | 11 | 189 | 3.2 | 6.4 | 0.00 | 0.00 | 0.00 | 92 | 1021.0 |
| 20260506160058 | 11 | 187 | 3.2 | 6.4 | 0.00 | 0.00 | 0.00 | 93 | 1021.0 |
| 20260506155552 | 11 | 177 | 4.8 | 8.0 | 0.00 | 0.00 | 0.00 | 93 | 1021.1 |
| 20260506155055 | 11 | 215 | 6.4 | 9.7 | 0.00 | 0.00 | 0.00 | 92 | 1021.3 |
| 20260506154551 | 11 | 227 | 4.8 | 12.9 | 0.00 | 0.00 | 0.00 | 92 | 1021.1 |
| 20260506154541 | 11 | 181 | 4.8 | 12.9 | 0.00 | 0.00 | 0.00 | 92 | 1021.1 |
| 20260506153550 | 11 | 205 | 4.8 | 9.7 | 0.00 | 0.00 | 0.00 | 91 | 1021.1 |
| 20260506153043 | 11 | 230 | 6.4 | 12.9 | 0.00 | 0.00 | 0.00 | 91 | 1021.0 |
| 20260506152737 | 11 | 196 | 6.4 | 14.5 | 0.00 | 0.00 | 0.00 | 91 | 1020.8 |
| 20260506152628 | 11 | 200 | 8.0 | 14.5 | 0.00 | 0.00 | 0.00 | 91 | 1021.0 |
| 20260506151542 | 11 | 197 | 6.4 | 11.3 | 0.00 | 0.00 | 0.00 | 91 | 1020.8 |
| 20260506151044 | 11 | 145 | 4.8 | 11.3 | 0.00 | 0.00 | 0.00 | 91 | 1020.7 |
| 20260506150540 | 11 | 191 | 4.8 | 11.3 | 0.00 | 0.00 | 0.00 | 91 | 1020.7 |
| 20260506150040 | 11 | 167 | 4.8 | 11.3 | 0.00 | 0.00 | 0.00 | 91 | 1020.7 |
| 20260506145757 | 11 | 206 | 6.4 | 12.9 | 0.00 | 0.00 | 0.00 | 91 | 1020.7 |
| 20260506145042 | 11 | 149 | 6.4 | 12.9 | 0.00 | 0.00 | 0.00 | 91 | 1020.7 |
| 20260506144538 | 11 | 177 | 8.0 | 14.5 | 0.00 | 0.00 | 0.00 | 91 | 1020.6 |
| 20260506144037 | 11 | 179 | 8.0 | 14.5 | 0.00 | 0.00 | 0.00 | 90 | 1020.6 |
| 20260506143802 | 11 | 162 | 4.8 | 9.7 | 0.00 | 0.00 | 0.00 | 91 | 1020.4 |
| 20260506143037 | 11 | 189 | 3.2 | 9.7 | 0.00 | 0.00 | 0.00 | 91 | 1020.4 |
| 20260506142537 | 11 | 196 | 4.8 | 9.7 | 0.00 | 0.00 | 0.00 | 91 | 1020.4 |
| 20260506142257 | 11 | 181 | 4.8 | 11.3 | 0.00 | 0.00 | 0.00 | 91 | 1020.3 |
| 20260506141536 | 11 | 156 | 6.4 | 12.9 | 0.00 | 0.00 | 0.00 | 91 | 1020.2 |
| 20260506141257 | 11 | 153 | 6.4 | 12.9 | 0.00 | 0.00 | 0.00 | 91 | 1020.3 |
| 20260506140532 | 11 | 143 | 4.8 | 11.3 | 0.00 | 0.00 | 0.00 | 91 | 1020.3 |
| 20260506140029 | 11 | 189 | 4.8 | 11.3 | 0.00 | 0.00 | 0.00 | 91 | 1020.4 |
| 20260506135521 | 11 | 157 | 4.8 | 9.7 | 0.00 | 0.00 | 0.00 | 92 | 1020.4 |
| 20260506135505 | 11 | 161 | 4.8 | 9.7 | 0.00 | 0.00 | 0.00 | 92 | 1020.4 |
| 20260506134742 | 10 | 146 | 6.4 | 11.3 | 0.00 | 0.00 | 0.00 | 92 | 1020.2 |
| 20260506134009 | 10 | 148 | 6.4 | 11.3 | 0.00 | 0.00 | 0.00 | 92 | 1020.1 |
| 20260506133502 | 10 | 163 | 6.4 | 11.3 | 0.00 | 0.00 | 0.00 | 92 | 1020.1 |
| 20260506133225 | 10 | 149 | 6.4 | 11.3 | 0.00 | 0.00 | 0.00 | 92 | 1020.1 |
| 20260506132501 | 10 | 166 | 4.8 | 9.7 | 0.00 | 0.00 | 0.00 | 92 | 1020.1 |
| 20260506131958 | 10 | 141 | 4.8 | 9.7 | 0.00 | 0.00 | 0.00 | 92 | 1020.1 |
| 20260506131459 | 10 | 167 | 4.8 | 9.7 | 0.00 | 0.00 | 0.00 | 92 | 1020.0 |
| 20260506130957 | 10 | 133 | 4.8 | 6.4 | 0.00 | 0.00 | 0.00 | 92 | 1020.0 |
| 20260506130457 | 10 | 156 | 4.8 | 8.0 | 0.00 | 0.00 | 0.00 | 92 | 1020.0 |
| 20260506125958 | 10 | 168 | 4.8 | 8.0 | 0.00 | 0.00 | 0.00 | 92 | 1020.0 |
| 20260506125446 | 10 | 150 | 3.2 | 6.4 | 0.00 | 0.00 | 0.00 | 92 | 1019.9 |
| 20260506124947 | 10 | 164 | 3.2 | 6.4 | 0.00 | 0.00 | 0.00 | 92 | 1019.9 |
| 20260506124448 | 10 | 166 | 3.2 | 6.4 | 0.00 | 0.00 | 0.00 | 92 | 1019.9 |
| 20260506123943 | 10 | 138 | 4.8 | 11.3 | 0.00 | 0.00 | 0.00 | 93 | 1019.9 |
| 20260506123438 | 10 | 164 | 4.8 | 11.3 | 0.00 | 0.00 | 0.00 | 93 | 1019.8 |
| 20260506122930 | 10 | 182 | 4.8 | 11.3 | 0.00 | 0.00 | 0.00 | 93 | 1019.7 |
| 20260506122432 | 10 | 159 | 4.8 | 11.3 | 0.00 | 0.00 | 0.00 | 93 | 1019.7 |
| 20260506121930 | 10 | 186 | 4.8 | 9.7 | 0.00 | 0.00 | 0.00 | 93 | 1019.6 |
| 20260506121423 | 10 | 156 | 4.8 | 9.7 | 0.00 | 0.00 | 0.00 | 93 | 1019.6 |
| 20260506120924 | 9 | 197 | 4.8 | 9.7 | 0.00 | 0.00 | 0.00 | 93 | 1019.5 |
| 20260506120422 | 9 | 229 | 3.2 | 8.0 | 0.00 | 0.00 | 0.00 | 93 | 1019.4 |
| 20260506115921 | 9 | 164 | 4.8 | 8.0 | 0.00 | 0.00 | 0.00 | 93 | 1019.4 |
| 20260506115421 | 9 | 227 | 4.8 | 9.7 | 0.00 | 0.00 | 0.00 | 93 | 1019.4 |
| 20260506114918 | 9 | 176 | 3.2 | 9.7 | 0.00 | 0.00 | 0.00 | 93 | 1019.2 |
| 20260506114418 | 9 | 208 | 3.2 | 8.0 | 0.00 | 0.00 | 0.00 | 93 | 1019.1 |
| 20260506113911 | 9 | 203 | 4.8 | 8.0 | 0.00 | 0.00 | 0.00 | 93 | 1019.0 |
| 20260506113411 | 9 | 221 | 3.2 | 8.0 | 0.00 | 0.00 | 0.00 | 93 | 1019.0 |
| 20260506112912 | 10 | 223 | 4.8 | 9.7 | 0.00 | 0.00 | 0.00 | 93 | 1018.9 |
| 20260506112409 | 9 | 195 | 4.8 | 11.3 | 0.00 | 0.00 | 0.00 | 92 | 1018.8 |
| 20260506111908 | 10 | 192 | 4.8 | 11.3 | 0.00 | 0.00 | 0.00 | 92 | 1018.7 |
| 20260506111627 | 10 | 183 | 4.8 | 9.7 | 0.00 | 0.00 | 0.00 | 92 | 1018.7 |
| 20260506110906 | 10 | 191 | 4.8 | 8.0 | 0.00 | 0.00 | 0.00 | 92 | 1018.6 |
| 20260506110406 | 10 | 176 | 3.2 | 6.4 | 0.00 | 0.00 | 0.00 | 92 | 1018.4 |
| 20260506110126 | 10 | 172 | 3.2 | 4.8 | 0.00 | 0.00 | 0.00 | 92 | 1018.5 |
| 20260506105354 | 10 | 171 | 3.2 | 4.8 | 0.00 | 0.00 | 0.00 | 91 | 1018.3 |
| 20260506104843 | 10 | 171 | 3.2 | 9.7 | 0.00 | 0.00 | 0.00 | 91 | 1018.2 |
| 20260506104341 | 10 | 177 | 4.8 | 9.7 | 0.00 | 0.00 | 0.00 | 91 | 1018.2 |
| 20260506103841 | 10 | 184 | 4.8 | 6.4 | 0.00 | 0.00 | 0.00 | 91 | 1018.2 |
| 20260506103341 | 10 | 167 | 3.2 | 6.4 | 0.00 | 0.00 | 0.00 | 91 | 1018.1 |
| 20260506102839 | 10 | 177 | 1.6 | 4.8 | 0.00 | 0.00 | 0.00 | 90 | 1018.1 |
| 20260506102335 | 10 | 177 | 1.6 | 4.8 | 0.00 | 0.00 | 0.00 | 91 | 1018.0 |
| 20260506101837 | 10 | 175 | 1.6 | 4.8 | 0.00 | 0.00 | 0.00 | 91 | 1017.9 |
| 20260506101331 | 10 | 185 | 3.2 | 6.4 | 0.00 | 0.00 | 0.00 | 91 | 1017.9 |
| 20260506100827 | 10 | 185 | 4.8 | 9.7 | 0.00 | 0.00 | 0.00 | 91 | 1017.9 |
| 20260506100323 | 10 | 173 | 4.8 | 9.7 | 0.00 | 0.00 | 0.00 | 91 | 1017.8 |
| 20260506095822 | 10 | 193 | 4.8 | 9.7 | 0.00 | 0.00 | 0.00 | 91 | 1017.9 |
| 20260506095316 | 10 | 187 | 4.8 | 9.7 | 0.00 | 0.00 | 0.00 | 90 | 1017.9 |
| 20260506094818 | 11 | 175 | 6.4 | 11.3 | 0.00 | 0.00 | 0.00 | 90 | 1017.9 |
| 20260506094535 | 11 | 210 | 4.8 | 12.9 | 0.00 | 0.00 | 0.00 | 90 | 1017.8 |
| 20260506093808 | 11 | 171 | 4.8 | 12.9 | 0.00 | 0.00 | 0.00 | 90 | 1017.8 |
| 20260506093307 | 11 | 191 | 6.4 | 11.3 | 0.00 | 0.00 | 0.00 | 90 | 1017.8 |
| 20260506093029 | 11 | 184 | 6.4 | 11.3 | 0.00 | 0.00 | 0.00 | 90 | 1017.8 |
| 20260506092301 | 11 | 181 | 6.4 | 11.3 | 0.00 | 0.00 | 0.00 | 90 | 1017.7 |
| 20260506091802 | 11 | 175 | 4.8 | 9.7 | 0.00 | 0.00 | 0.00 | 90 | 1017.8 |
| 20260506091300 | 11 | 203 | 3.2 | 9.7 | 0.00 | 0.00 | 0.00 | 90 | 1017.8 |
| 20260506090802 | 11 | 217 | 3.2 | 6.4 | 0.00 | 0.00 | 0.00 | 89 | 1017.8 |
| 20260506090259 | 11 | 206 | 3.2 | 6.4 | 0.00 | 0.00 | 0.00 | 90 | 1017.8 |
| 20260506085800 | 11 | 180 | 1.6 | 6.4 | 0.00 | 0.00 | 0.00 | 89 | 1017.7 |
| 20260506085301 | 11 | 203 | 1.6 | 4.8 | 0.00 | 0.00 | 0.00 | 89 | 1017.7 |
| 20260506085025 | 11 | 193 | 3.2 | 6.4 | 0.00 | 0.00 | 0.00 | 89 | 1017.6 |
| 20260506084252 | 11 | 173 | 3.2 | 6.4 | 0.00 | 0.00 | 0.00 | 89 | 1017.5 |
| 20260506083749 | 11 | 177 | 3.2 | 4.8 | 0.00 | 0.00 | 0.00 | 89 | 1017.5 |
| 20260506083251 | 11 | 193 | 3.2 | 6.4 | 0.00 | 0.00 | 0.00 | 89 | 1017.5 |
| 20260506082744 | 11 | 175 | 3.2 | 6.4 | 0.00 | 0.00 | 0.00 | 89 | 1017.5 |
| 20260506082241 | 11 | 175 | 3.2 | 4.8 | 0.00 | 0.00 | 0.00 | 90 | 1017.5 |
| 20260506081737 | 12 | 198 | 3.2 | 4.8 | 0.00 | 0.00 | 0.00 | 89 | 1017.4 |
| 20260506081240 | 12 | 195 | 3.2 | 4.8 | 0.00 | 0.00 | 0.00 | 89 | 1017.5 |
| 20260506080733 | 12 | 167 | 3.2 | 6.4 | 0.00 | 0.00 | 0.00 | 88 | 1017.4 |
| 20260506080231 | 12 | 166 | 4.8 | 9.7 | 0.00 | 0.00 | 0.00 | 88 | 1017.5 |
| 20260506073147 | 13 | 226 | 1.6 | 4.8 | 0.00 | 0.00 | 0.00 | 85 | 1017.5 |
| 20260506072647 | 13 | 226 | 3.2 | 4.8 | 0.00 | 0.00 | 0.00 | 85 | 1017.5 |
| 20260506072143 | 13 | 248 | 3.2 | 8.0 | 0.00 | 0.00 | 0.00 | 85 | 1017.4 |
| 20260506071644 | 13 | 230 | 3.2 | 8.0 | 0.00 | 0.00 | 0.00 | 85 | 1017.4 |
| 20260506071132 | 13 | 265 | 3.2 | 8.0 | 0.00 | 0.00 | 0.00 | 85 | 1017.3 |
| 20260506070619 | 14 | 241 | 1.6 | 8.0 | 0.00 | 0.00 | 0.00 | 86 | 1017.2 |
| 20260506070331 | 14 | 141 | 1.6 | 4.8 | 0.00 | 0.00 | 0.00 | 87 | 1017.2 |
| 20260506062021 | 14 | 85 | 0.0 | 0.0 | 0.00 | 0.00 | 0.00 | 88 | 1017.0 |
| 20260506061519 | 13 | 85 | 0.0 | 3.2 | 0.00 | 0.00 | 0.00 | 87 | 1016.9 |
| 20260506061019 | 14 | 85 | 0.0 | 3.2 | 0.00 | 0.00 | 0.00 | 87 | 1016.9 |
| 20260506060516 | 14 | 23 | 0.0 | 0.0 | 0.00 | 0.00 | 0.00 | 87 | 1016.7 |
| 20260506060230 | 13 | 23 | 0.0 | 0.0 | 0.00 | 0.00 | 0.00 | 87 | 1016.8 |
| 20260506051408 | 13 | 23 | 1.6 | 3.2 | 0.00 | 0.00 | 0.00 | 86 | 1016.3 |
| 20260506050858 | 13 | 23 | 1.6 | 3.2 | 0.00 | 0.00 | 0.00 | 85 | 1016.3 |
| 20260506050358 | 13 | 23 | 1.6 | 4.8 | 0.00 | 0.00 | 0.00 | 85 | 1016.2 |
| 20260506044824 | 14 | 314 | 1.6 | 4.8 | 0.00 | 0.00 | 0.00 | 84 | 1016.0 |
| 20260506044321 | 14 | 327 | 1.6 | 4.8 | 0.00 | 0.00 | 0.00 | 83 | 1015.9 |
| 20260506043821 | 14 | 292 | 1.6 | 4.8 | 0.00 | 0.00 | 0.00 | 84 | 1015.8 |
| 20260506043544 | 14 | 294 | 1.6 | 4.8 | 0.00 | 0.00 | 0.00 | 83 | 1015.9 |
| 20260506042821 | 14 | 294 | 1.6 | 4.8 | 0.00 | 0.00 | 0.00 | 83 | 1015.7 |
| 20260506042310 | 15 | 294 | 1.6 | 4.8 | 0.00 | 0.00 | 0.00 | 83 | 1015.8 |
| 20260506041755 | 15 | 294 | 1.6 | 4.8 | 0.00 | 0.00 | 0.00 | 83 | 1015.7 |
| 20260506041256 | 15 | 294 | 1.6 | 3.2 | 0.00 | 0.00 | 0.00 | 83 | 1015.8 |
| 20260506040752 | 15 | 294 | 1.6 | 4.8 | 0.00 | 0.00 | 0.00 | 83 | 1015.7 |
| 20260506040507 | 15 | 294 | 1.6 | 4.8 | 0.00 | 0.00 | 0.00 | 82 | 1015.6 |
| 20260506035746 | 15 | 258 | 1.6 | 4.8 | 0.00 | 0.00 | 0.00 | 82 | 1015.6 |
| 20260506035502 | 15 | 260 | 3.2 | 4.8 | 0.00 | 0.00 | 0.00 | 82 | 1015.5 |
| 20260506034745 | 15 | 250 | 1.6 | 4.8 | 0.00 | 0.00 | 0.00 | 83 | 1015.6 |
| 20260506034726 | 15 | 239 | 1.6 | 4.8 | 0.00 | 0.00 | 0.00 | 81 | 1015.4 |
| 20260506034003 | 15 | 240 | 1.6 | 4.8 | 0.00 | 0.00 | 0.00 | 79 | 1015.4 |
| 20260506033236 | 16 | 330 | 1.6 | 4.8 | 0.00 | 0.00 | 0.00 | 78 | 1015.3 |
| 20260506032727 | 16 | 330 | 3.2 | 4.8 | 0.00 | 0.00 | 0.00 | 77 | 1015.3 |
| 20260506032221 | 16 | 337 | 3.2 | 6.4 | 0.00 | 0.00 | 0.00 | 77 | 1015.1 |
| 20260506031719 | 16 | 322 | 3.2 | 6.4 | 0.00 | 0.00 | 0.00 | 77 | 1015.2 |
| 20260506031219 | 16 | 353 | 1.6 | 6.4 | 0.00 | 0.00 | 0.00 | 76 | 1015.2 |
| 20260506030715 | 17 | 15 | 3.2 | 6.4 | 0.00 | 0.00 | 0.00 | 76 | 1015.1 |
| 20260506030435 | 17 | 15 | 3.2 | 6.4 | 0.00 | 0.00 | 0.00 | 75 | 1015.2 |
| 20260506025708 | 17 | 4 | 4.8 | 9.7 | 0.00 | 0.00 | 0.00 | 75 | 1015.1 |
| 20260506025210 | 17 | 346 | 4.8 | 9.7 | 0.00 | 0.00 | 0.00 | 75 | 1015.0 |
| 20260506024709 | 17 | 11 | 4.8 | 11.3 | 0.00 | 0.00 | 0.00 | 75 | 1015.0 |
| 20260506024427 | 17 | 11 | 4.8 | 11.3 | 0.00 | 0.00 | 0.00 | 74 | 1015.0 |
| 20260506023711 | 17 | 22 | 4.8 | 11.3 | 0.00 | 0.00 | 0.00 | 74 | 1015.0 |
| 20260506023210 | 18 | 355 | 4.8 | 11.3 | 0.00 | 0.00 | 0.00 | 74 | 1014.9 |
| 20260506022707 | 18 | 342 | 6.4 | 12.9 | 0.00 | 0.00 | 0.00 | 73 | 1014.7 |
| 20260506022208 | 18 | 7 | 8.0 | 14.5 | 0.00 | 0.00 | 0.00 | 73 | 1014.8 |
| 20260506021933 | 18 | 17 | 6.4 | 14.5 | 0.00 | 0.00 | 0.00 | 73 | 1014.7 |
| 20260506021428 | 18 | 36 | 6.4 | 11.3 | 0.00 | 0.00 | 0.00 | 72 | 1014.7 |